Location: Most
(50.5133°N, 13.6207°E)
Time: 10:59:37
(UTC+01:00)

Oscar 11 - Pass Details

Date: 07 December 2021
Orbit: 611 x 625 km, 97.6° (Epoch: 23 January)

Event Time Altitude Azimuth Distance (km) Brightness Sun altitude
Rises 06:45:06 0° 4° (N) 2,919 10.3 -10.1°
Reaches altitude 10° 06:47:36 10° 351° (N) 2,006 9.4 -9.7°
Maximum altitude 06:51:08 25° 297° (WNW) 1,273 8.1 -9.2°
Drops below altitude 10° 06:54:39 10° 242° (WSW) 1,987 9.3 -8.7°
Sets 06:57:07 0° 229° (SW) 2,885 10.2 -8.3°
